Theta_e
292 292 292 292 292 293 293 293 293 293 293 293 293 295 295 296 296 296 298 299 299 301 303 306 308 311 314 314 313 311 308 305 301 301 305 304 306 306 306 306 307 308 306 302 301 300 309 305 303 305 302 302 305 303
291 291 292 292 292 292 293 293 292 292 292 292 294 295 295 296 296 296 296 298 299 299 301 300 302 304 307 313 313 306 309 307 306 304 301 301 304 301 305 308 304 307 306 307 306 307 305 303 302 303 301 304 303 299
291 291 292 292 292 292 292 292 292 291 292 293 294 295 295 296 294 295 296 298 299 298 299 302 305 309 308 310 313 311 307 306 305 303 301 303 307 303 306 306 306 304 303 303 306 305 305 305 304 304 303 303 299 296
291 291 291 292 292 292 292 291 291 291 293 294 295 295 296 295 294 295 296 297 299 301 304 305 308 308 310 310 311 312 310 308 306 306 303 301 305 303 304 306 305 304 305 305 305 305 305 304 302 302 299 297 296 296
291 291 291 291 291 292 291 291 291 292 294 294 295 295 295 294 294 294 295 296 299 300 304 306 306 309 310 310 311 312 310 309 307 305 303 305 303 305 301 303 304 303 305 306 307 305 305 304 300 299 298 297 295 292
291 291 291 291 291 291 291 291 291 294 293 294 293 294 294 293 293 295 297 298 299 300 302 306 307 309 309 312 312 312 312 309 306 306 302 304 303 303 304 307 305 303 303 304 306 302 300 298 297 296 295 293 291 289
291 291 291 291 291 291 291 290 293 293 293 294 293 294 294 293 294 296 295 299 299 300 301 305 306 309 312 311 309 308 309 307 308 303 301 305 304 299 301 307 304 302 303 302 299 300 300 298 296 291 291 290 289 287
291 290 291 291 291 291 291 291 293 292 293 293 293 293 293 294 294 294 296 298 300 299 301 304 304 308 309 309 309 308 307 307 305 305 302 304 302 301 306 306 303 302 301 300 300 298 298 292 290 289 288 288 287 286
291 290 291 291 291 291 291 291 292 293 293 293 293 294 294 294 294 295 295 297 300 300 302 301 306 309 308 307 307 306 307 309 303 305 305 301 301 306 308 306 303 301 302 298 293 292 292 291 289 288 288 287 286 285
291 291 291 291 291 291 291 291 291 292 292 293 293 293 292 295 294 297 299 298 299 300 303 302 305 308 307 307 307 307 304 307 310 307 302 303 304 302 303 304 304 300 296 294 293 291 290 289 289 288 287 287 285 284
291 291 291 291 291 291 291 291 292 292 293 292 292 291 294 298 298 296 297 298 299 304 305 305 307 308 307 308 307 307 306 305 309 306 307 307 304 302 303 301 300 297 296 297 298 294 292 290 289 287 286 285 283 283
291 291 291 291 291 291 292 292 292 292 292 292 292 294 296 298 296 298 298 299 301 305 307 306 308 308 307 306 307 307 307 305 310 299 300 304 302 301 300 299 298 296 296 294 294 291 290 289 288 286 285 284 283 282
291 291 291 292 291 291 292 293 292 292 292 293 292 292 294 298 298 299 298 301 304 307 306 308 308 306 306 304 303 304 307 307 299 296 304 302 301 299 298 297 296 294 293 291 290 289 288 287 286 286 284 283 281 281
291 291 291 292 292 292 292 292 292 292 292 287 289 292 297 298 298 300 299 300 302 303 307 309 306 306 304 304 303 308 305 302 302 304 304 301 299 296 295 294 293 292 290 289 288 288 287 286 285 284 283 281 281 281
292 291 291 291 292 292 292 293 292 292 292 290 293 296 297 298 295 296 297 300 301 306 307 304 301 301 302 304 302 300 303 304 304 304 301 296 295 293 292 292 290 289 288 288 288 287 285 284 284 282 281 281 281 281
292 292 292 292 292 292 292 293 292 292 292 293 295 295 298 298 294 294 298 301 304 308 302 301 304 306 306 305 304 303 305 302 301 298 294 293 292 291 290 290 289 289 288 287 286 285 283 283 282 281 281 281 281 281
291 292 292 292 292 291 292 292 292 292 291 293 293 295 295 295 297 297 300 303 306 306 306 301 306 309 302 303 304 301 300 298 295 294 293 292 290 289 289 288 288 287 286 286 285 284 282 282 281 280 279 281 281 281
292 292 292 291 292 292 292 292 292 292 292 292 295 296 296 295 296 298 300 306 306 306 300 304 300 304 304 306 303 296 295 293 293 292 290 289 289 288 288 287 286 286 285 284 283 282 281 280 280 280 280 281 281 280
292 292 291 291 292 292 292 291 292 293 293 293 296 296 296 297 294 299 303 304 296 297 298 297 303 304 303 298 296 294 294 292 291 290 288 288 288 287 286 286 285 284 283 283 282 282 282 282 282 282 281 281 280 280
292 292 292 292 292 292 290 291 292 294 297 297 295 297 297 297 293 294 296 296 295 296 298 298 298 295 293 294 294 294 292 291 289 289 287 286 286 286 285 285 284 283 282 282 282 283 282 282 282 282 282 282 281 279
293 293 292 293 293 294 293 294 293 294 296 297 296 296 297 297 299 301 297 293 295 294 295 295 294 293 293 291 292 291 290 290 291 291 288 286 286 285 284 283 284 283 283 282 283 282 283 282 282 283 282 282 281 280
293 293 293 293 293 293 294 293 295 294 295 297 297 296 298 297 298 295 293 295 293 293 293 293 292 291 291 290 290 290 290 289 288 287 286 285 284 284 284 283 283 283 282 283 283 282 281 282 282 282 281 280 279 279
293 293 292 292 293 292 294 292 296 297 299 299 297 298 296 295 294 292 295 294 292 291 291 291 290 289 289 288 288 288 288 287 287 286 286 285 284 284 284 284 283 283 283 282 282 282 281 282 281 280 279 279 278 277
293 292 291 292 292 291 294 295 296 297 297 298 299 298 295 294 292 294 294 292 291 290 290 289 289 289 289 289 288 288 288 287 286 285 285 284 284 284 284 284 284 283 283 282 282 281 281 280 280 279 279 278 277 276
291 291 290 291 291 290 291 293 293 294 294 294 296 296 294 293 294 294 289 292 292 291 290 290 290 290 289 288 287 287 286 286 286 285 285 285 284 283 283 282 282 282 283 282 280 281 280 279 279 278 278 277 276 276
287 286 289 289 289 290 289 290 288 290 292 291 293 293 294 294 298 300 289 292 292 291 290 290 290 289 288 288 287 286 286 286 286 285 285 284 284 283 282 281 281 281 282 284 282 280 279 279 278 277 277 276 276 276
284 286 292 290 292 293 291 290 291 291 293 290 289 290 295 299 295 287 286 290 291 290 290 290 290 289 288 287 286 286 286 286 286 285 285 284 284 284 284 282 281 282 283 284 282 280 279 278 277 277 276 276 276 275
286 288 293 291 290 290 288 287 288 288 288 289 290 294 300 298 293 286 287 290 289 289 288 288 288 287 286 286 285 285 285 285 285 285 285 284 284 285 285 285 285 284 284 283 281 279 278 278 277 276 276 275 275 274
284 289 286 284 283 284 284 283 288 287 287 286 286 286 289 289 287 289 288 288 288 288 287 286 285 285 284 284 284 284 284 284 285 285 283 281 280 282 284 285 284 284 283 281 279 278 278 277 277 276 275 275 274 273
286 287 283 277 280 284 283 284 281 285 283 283 287 289 289 288 288 288 288 288 288 287 287 286 285 285 284 284 283 284 285 286 286 285 284 282 282 283 284 284 284 282 279 279 278 277 277 276 276 275 275 274 274 273
288 284 285 283 282 285 285 285 286 285 282 286 281 288 288 287 287 288 288 288 287 286 286 286 285 285 285 284 284 285 284 286 286 286 286 285 285 284 284 284 282 279 279 278 277 277 277 276 276 276 275 274 273 273
287 284 283 284 287 288 288 289 288 287 286 286 288 287 286 286 287 285 287 286 286 286 286 286 286 286 286 286 286 286 285 285 286 285 285 285 284 284 284 282 280 279 279 278 278 277 277 276 276 275 275 274 274 273
289 289 288 287 285 285 287 286 287 287 286 285 286 284 276 277 282 282 287 287 287 286 286 286 286 286 286 286 286 286 286 286 285 284 284 283 283 282 281 280 279 279 279 278 278 277 277 276 276 275 275 274 273 273
Wind_Speed
29 29 30 31 31 31 28 27 28 28 27 25 26 26 23 22 19 17 9 15 11 3 8 7 7 0 6 6 6 4 2 3 3 4 4 4 3 6 4 4 6 7 6 3 3 2 6 5 4 6 5 2 2 3
30 30 31 30 30 30 28 28 29 27 26 26 27 25 24 22 19 14 7 11 16 5 4 19 22 21 16 11 9 3 3 4 6 4 1 4 3 2 6 3 1 3 6 5 8 6 4 4 2 2 4 4 3 6
30 30 30 30 30 29 28 29 28 25 26 27 26 28 24 21 19 14 10 10 13 2 8 8 6 11 14 22 23 6 2 4 3 3 4 3 3 4 4 5 3 3 3 3 3 4 6 4 2 4 2 4 5 10
30 30 31 30 29 28 29 28 26 25 26 25 26 27 24 19 16 12 11 14 15 1 3 5 5 11 11 18 31 26 7 1 3 1 3 3 3 4 4 4 4 4 6 6 4 4 2 5 5 6 7 10 12 12
32 32 31 31 29 28 28 27 26 26 25 24 27 26 22 17 15 10 11 19 22 7 2 4 15 12 12 12 34 29 13 5 2 2 2 2 3 4 2 3 2 5 7 5 6 8 5 3 8 10 12 11 13 17
32 32 32 31 30 29 29 28 25 27 21 24 24 22 20 17 12 4 2 15 25 25 3 3 6 4 4 15 23 18 10 4 3 2 2 1 1 3 4 4 6 7 6 4 4 5 4 7 6 5 12 10 15 16
33 32 31 31 30 30 29 28 28 24 27 23 20 21 19 13 13 6 4 2 23 17 2 3 3 3 12 8 3 3 5 3 2 1 1 3 1 3 3 5 6 8 7 5 8 11 6 4 6 13 23 24 24 25
33 33 32 32 32 32 30 29 29 24 24 24 22 19 15 10 7 9 25 18 19 9 4 3 3 3 4 3 3 2 3 2 2 2 1 2 1 2 3 5 3 5 8 7 4 4 7 17 19 18 24 28 19 15
34 34 33 34 33 33 31 30 28 25 23 22 20 16 7 3 4 7 15 12 4 8 3 3 3 3 2 2 3 3 2 2 1 2 3 3 2 5 7 7 8 10 10 12 9 13 14 17 16 15 19 17 18 13
35 35 35 36 34 33 32 31 27 25 22 23 14 4 2 8 12 7 4 1 4 4 3 3 3 4 3 2 2 3 1 3 3 3 3 3 4 6 6 8 7 11 17 19 17 8 12 14 15 15 14 18 22 21
36 35 36 37 36 34 32 31 28 26 25 6 4 5 8 6 12 4 4 5 5 6 5 3 5 2 3 4 2 2 3 2 4 3 5 3 4 5 10 10 9 13 21 13 9 12 18 24 19 17 17 22 24 24
37 37 37 37 36 35 34 32 31 23 13 13 8 1 2 6 3 5 5 3 4 6 6 6 3 2 2 3 3 2 3 1 5 4 3 3 4 5 4 7 11 15 17 12 21 22 26 26 28 28 27 26 24 27
40 38 39 38 37 36 35 35 36 25 20 9 2 1 3 4 7 6 8 3 3 5 6 6 6 3 2 3 3 3 4 4 3 2 4 5 2 1 5 9 11 16 23 24 24 26 30 29 30 34 29 27 30 27
43 40 39 38 39 38 38 38 34 28 8 3 4 4 5 5 5 5 5 6 5 4 11 13 5 3 2 2 3 4 1 3 1 3 6 3 6 7 7 10 16 15 17 22 26 30 30 30 28 28 30 34 32 27
44 41 39 36 39 40 39 41 35 26 4 3 4 5 7 4 3 3 3 3 3 7 12 6 4 3 2 3 1 4 2 4 5 5 4 2 10 11 12 12 15 16 16 21 28 29 30 32 31 28 29 30 33 31
47 37 38 38 42 41 40 38 23 14 3 2 5 5 4 3 2 2 3 2 6 10 4 3 4 4 2 3 3 7 8 7 4 3 2 7 10 10 12 13 15 22 25 27 27 30 31 31 32 32 32 33 31 29
49 12 43 44 42 42 43 15 7 4 4 5 5 4 5 6 8 4 4 6 10 11 7 4 5 6 4 3 4 5 5 3 3 4 5 8 13 13 14 20 23 26 27 29 30 29 30 35 39 35 28 29 27 24
31 33 48 49 45 39 21 6 4 5 8 6 5 5 2 2 4 4 3 9 8 9 3 5 5 4 6 7 4 4 3 2 4 7 7 9 12 19 22 23 26 29 30 29 32 32 34 32 28 24 28 28 26 24
37 47 53 51 36 12 4 5 5 5 8 3 3 3 3 4 5 5 6 9 3 4 5 2 4 4 4 4 4 3 6 4 8 7 8 17 22 24 24 27 30 29 31 32 32 27 26 25 27 27 28 27 24 22
40 52 54 45 31 5 4 2 6 3 3 3 2 2 3 4 2 2 5 3 3 3 2 2 3 2 2 1 1 5 8 11 13 12 10 9 21 27 26 28 27 31 30 29 27 29 28 25 24 28 27 26 24 20
46 44 50 35 7 2 2 4 4 4 2 3 2 3 3 2 3 4 2 0 3 2 2 1 0 2 1 4 11 16 13 15 9 7 15 13 21 25 25 28 30 28 28 26 24 22 23 22 27 26 24 21 18 16
43 50 24 14 1 1 2 6 2 4 3 2 2 2 2 3 2 1 0 3 2 1 1 2 2 5 7 8 10 17 20 25 26 26 28 28 12 18 21 26 27 23 23 24 25 24 24 28 28 24 22 22 18 15
42 22 10 4 3 4 3 4 4 4 3 2 0 1 3 2 1 1 2 2 2 0 3 4 6 16 12 20 23 22 25 28 21 23 24 25 26 26 27 25 27 29 23 20 27 29 30 29 26 25 23 20 18 17
30 5 5 6 4 4 2 3 2 2 2 3 2 3 3 2 2 2 3 1 2 2 4 9 13 10 9 15 8 12 18 25 26 25 27 30 24 20 25 26 24 23 27 31 31 33 31 28 25 24 21 19 16 14
6 3 5 3 1 3 3 2 2 2 3 3 2 3 3 2 2 1 3 3 4 6 6 7 7 6 10 8 9 15 22 26 25 17 22 29 31 27 24 25 25 29 36 36 31 33 30 26 23 21 18 16 14 12
4 5 5 6 2 3 4 3 3 3 3 4 3 3 2 2 3 4 4 7 6 7 9 9 10 10 7 11 9 12 19 26 31 24 22 27 32 31 25 22 20 19 30 36 37 34 30 26 23 19 17 13 11 11
4 3 2 1 2 3 2 1 3 4 3 4 3 2 2 3 4 3 1 2 5 10 18 19 19 14 13 18 19 23 26 26 24 25 29 25 28 37 40 35 27 31 35 33 32 31 30 26 22 18 15 12 9 8
3 2 5 2 2 1 4 3 4 6 5 2 4 2 5 4 4 2 2 8 21 23 23 21 22 26 26 26 27 32 33 35 39 38 34 28 27 28 28 29 34 36 33 29 28 27 25 23 20 16 13 11 10 8
3 1 3 4 5 5 3 2 3 2 0 2 4 3 3 0 1 2 9 21 28 28 23 23 22 29 29 28 27 30 35 38 36 22 18 10 14 19 28 34 35 34 31 28 25 23 21 19 16 13 11 9 8 7
3 2 4 3 4 1 2 2 2 1 2 2 3 3 2 2 6 16 20 22 21 19 22 25 27 29 27 28 25 23 24 27 32 34 17 13 20 35 38 39 37 34 32 30 29 26 22 20 17 15 12 10 7 6
1 2 4 3 3 2 2 2 1 2 3 3 3 3 3 2 6 6 12 18 22 25 26 22 21 24 27 27 28 27 18 22 27 29 29 34 39 40 42 39 37 36 34 31 29 26 24 20 17 14 12 9 7 6
2 3 4 3 1 1 2 2 2 2 2 2 1 2 2 2 2 1 13 22 22 19 21 25 24 22 26 26 26 25 28 34 35 29 37 39 41 41 39 38 37 36 33 29 26 24 21 19 17 14 11 9 7 6
3 4 4 3 3 2 2 3 3 2 3 2 2 1 1 3 4 3 14 20 22 25 24 24 25 28 32 36 34 34 36 34 30 26 34 37 38 38 38 37 36 33 30 27 25 22 20 17 15 13 11 10 8 7
Wind_Direction
234 234 232 231 228 226 224 222 223 226 230 229 228 219 225 223 216 212 232 224 183 246 275 302 329 315 148 161 147 211 50 325 39 76 125 199 137 206 123 169 176 163 143 181 84 84 277 189 89 164 205 169 124 80
231 230 228 227 225 223 219 219 223 225 227 225 220 224 219 218 212 211 227 221 211 238 281 307 286 285 275 191 158 142 207 223 186 92 130 112 113 104 152 209 43 200 179 177 179 211 234 223 198 117 150 138 135 111
228 226 224 223 223 220 218 219 221 224 222 220 219 212 216 208 207 201 216 218 182 172 290 259 265 293 245 233 194 160 240 232 255 183 158 148 137 136 154 225 151 232 164 153 98 237 227 234 195 146 125 110 111 124
223 222 220 220 218 217 217 219 220 219 214 212 211 203 202 201 208 206 217 217 195 174 247 278 271 259 236 220 201 203 131 164 116 69 113 136 144 189 189 149 159 187 138 170 257 279 280 243 196 139 100 109 108 104
221 219 218 217 215 213 216 216 216 213 211 211 204 199 191 201 208 221 243 225 215 201 291 298 302 269 237 204 188 201 166 188 162 68 84 178 130 124 33 75 224 190 179 167 216 209 170 200 152 137 132 137 133 124
217 214 213 212 211 212 210 209 209 201 211 199 187 188 190 199 191 193 264 233 216 226 284 286 320 275 231 167 160 167 126 83 53 124 175 187 317 113 140 189 245 205 191 180 213 123 82 99 94 97 120 118 118 111
211 209 207 205 205 205 203 203 200 207 193 187 184 189 191 195 190 200 204 122 200 179 240 282 284 243 179 133 87 81 57 102 99 262 156 141 142 98 130 192 236 206 169 138 131 113 67 175 150 119 116 112 106 101
203 204 201 199 200 199 199 196 194 194 183 184 183 184 188 196 226 261 236 245 185 172 265 223 258 270 202 138 97 98 107 94 28 129 28 135 62 64 258 225 217 137 123 135 155 45 121 115 115 115 120 119 108 106
200 201 195 194 195 194 193 193 189 186 182 181 168 167 161 186 210 238 263 231 176 208 221 182 186 229 180 99 98 78 113 72 91 163 223 105 182 215 219 189 184 175 170 147 101 106 119 125 130 130 126 122 116 118
196 195 191 191 190 190 189 187 186 181 173 155 135 119 188 212 201 178 218 179 197 207 236 226 150 232 106 78 61 111 72 134 153 232 114 162 250 248 224 210 176 153 137 131 118 115 124 132 138 136 131 127 125 126
193 190 188 188 187 187 185 182 176 165 152 131 136 192 229 177 168 162 203 194 205 178 194 208 185 143 357 120 110 34 143 140 158 213 171 216 262 230 199 202 162 156 158 162 129 135 154 146 144 132 121 121 124 125
190 188 187 184 183 183 180 175 168 159 154 159 149 179 249 192 182 187 207 222 215 192 160 157 147 115 110 93 104 151 97 107 197 144 121 249 246 218 174 148 143 150 140 120 129 128 133 135 133 127 126 126 125 126
187 185 186 185 183 180 175 166 168 157 147 116 126 299 201 185 183 209 179 202 203 170 168 153 128 134 80 68 89 123 154 192 106 102 215 228 219 162 141 131 123 120 114 114 115 119 121 120 125 127 124 127 128 127
185 182 181 181 178 176 174 171 164 155 141 111 153 233 242 174 212 199 203 170 208 153 147 150 117 123 101 131 133 124 120 129 143 223 225 240 181 151 131 131 125 125 122 122 124 123 122 121 119 122 126 135 133 129
176 175 176 179 177 174 171 166 162 161 134 174 192 222 232 238 261 221 192 120 156 170 146 124 77 117 146 135 134 110 128 217 213 227 219 178 142 134 130 128 125 124 124 124 128 124 123 123 121 121 129 133 134 134
171 173 178 177 177 173 167 159 157 172 155 214 232 251 274 263 250 253 141 151 168 162 118 78 117 94 180 149 149 209 160 212 237 201 152 128 126 123 127 123 122 125 125 124 124 125 124 125 126 128 136 137 136 136
170 164 178 174 170 170 162 139 144 153 191 225 233 225 234 268 279 263 166 167 163 160 178 135 123 164 130 179 211 178 197 230 188 126 129 135 133 131 125 119 121 123 121 121 122 122 119 127 132 128 124 136 134 134
172 167 167 169 167 152 154 164 143 177 221 232 246 246 162 208 268 248 234 160 163 176 124 185 126 153 180 179 224 212 175 115 89 114 118 122 121 122 125 123 123 124 122 122 123 123 126 127 125 127 132 140 135 134
164 162 166 167 158 138 129 176 195 208 218 214 200 216 215 265 240 248 201 162 66 95 120 65 135 178 196 215 187 143 137 131 137 120 116 120 120 119 122 120 120 121 122 125 127 129 129 131 133 137 140 143 139 145
158 160 165 160 154 126 109 149 182 241 241 216 201 226 141 245 205 200 151 124 91 107 81 142 218 251 200 265 141 147 142 139 135 125 121 115 121 124 128 127 124 123 119 118 118 123 122 122 135 144 149 151 148 152
151 156 156 162 199 64 122 152 191 200 211 247 196 174 213 139 143 153 118 125 97 89 131 133 262 293 33 68 114 126 134 147 151 144 140 133 135 126 123 124 124 127 126 129 126 125 130 136 146 148 148 151 149 146
145 149 147 170 161 196 235 199 202 168 186 222 225 247 92 89 160 85 147 72 79 118 159 128 162 124 107 110 124 132 129 111 114 116 117 124 128 131 133 132 130 128 129 133 135 134 136 145 146 145 145 145 147 149
142 143 133 139 160 206 225 145 211 179 170 129 324 121 67 90 88 212 109 70 105 135 101 99 93 98 106 106 104 107 116 122 121 124 126 126 124 129 127 128 136 129 124 128 139 138 139 146 145 144 146 149 149 150
135 111 146 185 187 197 150 188 212 140 102 76 269 133 99 125 166 71 100 108 108 108 117 132 118 111 104 93 103 118 126 127 121 121 130 126 122 124 129 127 129 131 138 140 142 143 145 145 147 149 153 156 159 158
106 205 134 201 211 116 176 165 143 114 91 212 210 113 142 174 90 76 165 165 152 144 144 137 127 138 116 119 118 123 137 139 133 126 135 131 124 118 111 113 126 140 150 141 141 146 147 149 153 155 160 163 161 162
120 212 156 175 153 155 178 159 182 113 85 6 63 106 122 107 144 211 199 165 159 159 161 157 145 121 125 139 136 142 143 140 132 122 136 146 141 134 130 132 135 141 159 157 152 150 151 154 157 161 164 167 168 172
124 183 175 219 144 98 88 82 82 82 133 190 172 117 127 153 227 241 201 185 156 156 156 150 147 138 141 136 132 135 135 138 137 134 142 143 145 152 154 152 154 158 165 159 157 156 155 159 163 166 166 169 175 177
135 99 132 104 84 240 145 77 128 188 195 185 112 121 157 199 210 213 196 140 127 130 125 127 132 134 135 137 137 134 131 136 133 134 135 133 142 151 155 155 156 156 159 160 158 156 157 159 161 164 167 167 169 175
78 51 85 44 25 29 32 167 190 211 197 121 117 158 159 343 185 89 128 134 132 130 128 125 123 126 124 129 136 141 140 140 139 137 127 131 125 138 154 155 154 157 157 154 153 154 157 158 158 155 152 153 156 168
116 147 102 70 83 322 267 209 219 270 15 127 111 108 66 32 60 135 137 141 139 139 140 141 143 143 143 141 136 140 148 151 153 148 147 158 156 155 158 157 157 156 155 155 155 157 162 162 161 161 161 163 171 184
58 64 81 88 145 215 233 199 139 58 35 36 25 71 101 116 55 102 145 141 135 135 137 141 145 151 148 150 150 144 137 158 162 156 161 157 155 158 161 161 159 159 162 164 166 168 169 172 172 171 174 181 191 205
101 119 125 91 69 324 10 61 77 79 59 62 70 67 50 77 101 113 150 144 142 145 152 150 152 156 156 153 153 154 155 154 160 159 161 159 160 162 163 163 164 167 169 171 172 174 177 179 181 187 192 198 209 226
55 60 64 82 41 15 10 71 37 72 51 69 71 98 115 144 164 203 166 167 161 155 156 156 152 154 158 158 158 156 158 158 160 161 165 165 164 164 166 168 171 172 174 175 179 181 184 189 194 200 206 213 226 242